Location: Gleizolles
(44.4833°N, 6.7667°E)
Time: 19:48:35
(UTC+00:00)

Cosmos 1833 Rocket - Pass Details

Date: 09 April 2020
Orbit: 834 x 838 km, 71.0° (Epoch: 02 June)

Event Time Altitude Azimuth Distance (km) Brightness Sun altitude
Exits shadow 22:20:56 32° 297° (WNW) 1,396 4.1 -34.9°
Maximum altitude 22:21:23 33° 306° (NW) 1,385 4.1 -35.0°
Drops below altitude 10° 22:26:26 10° 10° (N) 2,459 5.7 -35.3°
Sets 22:29:09 0° 20° (NNE) 3,397 6.5 -35.5°
